Location: Rottenacker
(48.2350°N, 9.6886°E)
Time: 12:51:10
(UTC+01:00)

ISS - Pass Details

Date: 15 November 2017
Orbit: 402 x 407 km, 51.6° (Epoch: 21 November)

Event Time Altitude Azimuth Distance (km) Brightness Sun altitude
Exits shadow 06:28:16 13° 263° (W) 1,277 -1.9 -10.1°
Maximum altitude 06:30:11 21° 220° (SW) 975 -2.1 -9.8°
Drops below altitude 10° 06:32:41 10° 169° (S) 1,448 -0.6 -9.4°
Sets 06:35:04 0° 153° (SSE) 2,303 0.8 -9.0°
